Aiken, SC

10:55 PM EDT on July 25, 2017 (GMT -0400)
Aiken Municipal

Weather History for KAIK - April, 2013

Change the Weather History Date:

Monday, April 29, 2013

  Actual Average Record
Temperature  
Mean Temperature 66 °F -  
Max Temperature 71 °F 80 °F 91 °F (2012)
Min Temperature 59 °F 51 °F 48 °F (2015)
Growing Degree Days 16 (Base 50)    
Moisture  
Dew Point 62 °F    
Average Humidity 93    
Maximum Humidity 100    
Minimum Humidity 64    
Precipitation  
Precipitation 0.00 in - - ()
Sea Level Pressure  
Sea Level Pressure 30.04 in    
Wind  
Wind Speed 2 mph (SW)    
Max Wind Speed 8 mph    
Max Gust Speed -    
Visibility 9 miles    
Events Rain , Thunderstorm    
Averages and records for this station are not official NWS values.
T = Trace of Precipitation, MM = Missing Value Source: NWS Daily Summary

Daily Weather History Graph

Daily Weather History Graph

Search for Another Location

Airport or City:

Trip Planner

Search our weather history database for the weather conditions in past years. The results will help you decide how hot, cold, wet, or windy it might be!

Date:

Astronomy

Apr. 29, 2013 Rise Set
Actual Time 6:39 AM EDT 8:08 PM EDT
Civil Twilight 6:13 AM EDT 8:35 PM EDT
Nautical Twilight 5:41 AM EDT 9:06 PM EDT
Astronomical Twilight 5:08 AM EDT 9:40 PM EDT
Moon No Moon Rise 10:03 AM EDT (4/29)
Length of Visible Light 14h 21m
Length of Day
13h 28m
Waning Gibbous, 80% of the Moon is Illuminated
Apr 29
Waning Gibbous
May 2
Last Quarter
May 9
New
May 18
First Quarter
May 25
Full

Hourly Weather History & Observations

Time (EDT) Temp. Dew Point Humidity Pressure Visibility Wind Dir Wind Speed Gust Speed Precip Events Conditions
12:15 AM 60.8 °F 60.8 °F 100% 30.10 in 2.5 mi SSW 3.5 mph - N/A Rain Heavy Rain
12:35 AM 60.8 °F 60.8 °F 100% 30.10 in 3.0 mi Calm Calm - N/A Rain Heavy Rain
12:55 AM 60.8 °F 60.8 °F 100% 30.10 in 3.0 mi Calm Calm - N/A Rain Heavy Rain
1:15 AM 60.8 °F 60.8 °F 100% 30.10 in 7.0 mi Calm Calm - N/A Rain Rain
1:35 AM 60.8 °F 60.8 °F 100% 30.09 in 4.0 mi Calm Calm - N/A Rain Rain
1:55 AM 60.8 °F 60.8 °F 100% 30.08 in 7.0 mi Calm Calm - N/A Rain Rain
2:15 AM 60.8 °F 60.8 °F 100% 30.07 in 5.0 mi Calm Calm - N/A Rain Light Rain
2:35 AM 60.8 °F 60.8 °F 100% 30.08 in 5.0 mi Calm Calm - N/A Rain Rain
2:55 AM 60.8 °F 60.8 °F 100% 30.07 in 7.0 mi South 4.6 mph - N/A Rain Rain
3:15 AM 60.8 °F 60.8 °F 100% 30.05 in 7.0 mi South 3.5 mph - N/A Rain Light Rain
3:35 AM 60.8 °F 60.8 °F 100% 30.05 in 10.0 mi SSE 4.6 mph - N/A Rain Light Rain
3:55 AM 60.8 °F 60.8 °F 100% 30.04 in 10.0 mi Calm Calm - N/A Thunderstorm Overcast
4:15 AM 60.8 °F 60.8 °F 100% 30.04 in 7.0 mi SSE 3.5 mph - N/A   Light Drizzle
4:35 AM 60.8 °F 60.8 °F 100% 30.04 in 7.0 mi SSE 4.6 mph - N/A Rain Light Rain
4:55 AM 60.8 °F 60.8 °F 100% 30.03 in 7.0 mi SSE 3.5 mph - N/A   Light Drizzle
5:15 AM 60.8 °F 60.8 °F 100% 30.03 in 10.0 mi Calm Calm - N/A   Overcast
5:35 AM 60.8 °F 60.8 °F 100% 30.03 in 10.0 mi SSE 3.5 mph - N/A   Scattered Clouds
5:55 AM 60.8 °F 60.8 °F 100% 30.03 in 7.0 mi Calm Calm - N/A   Scattered Clouds
6:15 AM 60.8 °F 60.8 °F 100% 30.03 in 7.0 mi SSE 4.6 mph - N/A   Scattered Clouds
6:35 AM 60.8 °F 60.8 °F 100% 30.04 in 7.0 mi Calm Calm - N/A   Overcast
6:55 AM 60.8 °F 60.8 °F 100% 30.05 in 7.0 mi Calm Calm - N/A   Overcast
7:15 AM 60.8 °F 60.8 °F 100% 30.05 in 5.0 mi Calm Calm - N/A   Mostly Cloudy
7:35 AM 60.8 °F 60.8 °F 100% 30.05 in 5.0 mi Calm Calm - N/A   Scattered Clouds
7:55 AM 60.8 °F 60.8 °F 100% 30.05 in 7.0 mi Calm Calm - N/A   Clear
8:15 AM 60.8 °F 60.8 °F 100% 30.05 in 7.0 mi Calm Calm - N/A   Clear
8:35 AM 62.6 °F 62.6 °F 100% 30.06 in 7.0 mi Calm Calm - N/A   Clear
8:55 AM 62.6 °F 62.6 °F 100% 30.06 in 10.0 mi SSE 3.5 mph - N/A   Scattered Clouds
9:15 AM 62.6 °F 62.6 °F 100% 30.06 in 10.0 mi Calm Calm - N/A   Mostly Cloudy
9:35 AM 64.4 °F 64.4 °F 100% 30.06 in 10.0 mi Calm Calm - N/A   Mostly Cloudy
9:55 AM 64.4 °F 64.4 °F 100% 30.07 in 10.0 mi WNW 3.5 mph - N/A   Mostly Cloudy
10:15 AM 64.4 °F 64.4 °F 100% 30.07 in 10.0 mi NW 3.5 mph - N/A   Mostly Cloudy
10:35 AM 64.4 °F 64.4 °F 100% 30.07 in 10.0 mi Calm Calm - N/A   Overcast
10:55 AM 66.2 °F 66.2 °F 100% 30.07 in 10.0 mi Calm Calm - N/A   Overcast
11:15 AM 66.2 °F 66.2 °F 100% 30.07 in 10.0 mi Calm Calm - N/A   Light Drizzle
11:35 AM 68.0 °F 68.0 °F 100% 30.08 in 10.0 mi WSW 4.6 mph - N/A   Mostly Cloudy
11:55 AM 68.0 °F 68.0 °F 100% 30.08 in 10.0 mi WSW 3.5 mph - N/A   Light Drizzle
12:15 PM 68.0 °F 68.0 °F 100% 30.08 in 10.0 mi Calm Calm - N/A   Drizzle
12:35 PM 68.0 °F 68.0 °F 100% 30.08 in 10.0 mi West 4.6 mph - N/A   Light Drizzle
12:55 PM 68.0 °F 68.0 °F 100% 30.07 in 10.0 mi SW 3.5 mph - N/A   Drizzle
1:15 PM 68.0 °F 68.0 °F 100% 30.06 in 10.0 mi NW 3.5 mph - N/A   Light Drizzle
1:35 PM 68.0 °F 64.4 °F 88% 30.06 in 10.0 mi Calm Calm - N/A Rain Rain
1:55 PM 68.0 °F 68.0 °F 100% 30.05 in 10.0 mi NW 3.5 mph - N/A Rain Light Rain
2:15 PM 68.0 °F 68.0 °F 100% 30.05 in 10.0 mi West 3.5 mph - N/A Rain Light Rain
2:35 PM 69.8 °F 68.0 °F 94% 30.04 in 10.0 mi NW 4.6 mph - N/A   Mostly Cloudy
2:55 PM 69.8 °F 66.2 °F 88% 30.03 in 10.0 mi WNW 5.8 mph - N/A   Mostly Cloudy
3:15 PM 71.6 °F 66.2 °F 83% 30.02 in 10.0 mi NW 5.8 mph - N/A   Overcast
3:35 PM 69.8 °F 64.4 °F 83% 30.02 in 10.0 mi West 5.8 mph - N/A   Overcast
3:55 PM 71.6 °F 60.8 °F 69% 30.01 in 10.0 mi West 8.1 mph - N/A   Overcast
4:15 PM 71.6 °F 60.8 °F 69% 30.00 in 10.0 mi WSW 6.9 mph - N/A   Overcast
4:35 PM 71.6 °F 59.0 °F 64% 30.00 in 10.0 mi WNW 5.8 mph - N/A Thunderstorm Mostly Cloudy
4:55 PM 71.6 °F 60.8 °F 69% 30.00 in 10.0 mi WNW 5.8 mph - N/A   Mostly Cloudy
5:15 PM 69.8 °F 59.0 °F 68% 29.99 in 10.0 mi WSW 3.5 mph - N/A   Mostly Cloudy
5:35 PM 71.6 °F 59.0 °F 64% 29.99 in 10.0 mi Calm Calm - N/A   Mostly Cloudy
5:55 PM 69.8 °F 59.0 °F 68% 30.00 in 10.0 mi WSW 3.5 mph - N/A   Mostly Cloudy
6:15 PM 71.6 °F 59.0 °F 64% 30.00 in 10.0 mi Calm Calm - N/A   Scattered Clouds
6:35 PM 69.8 °F 59.0 °F 68% 30.00 in 10.0 mi SSW 5.8 mph - N/A   Scattered Clouds
6:55 PM 71.6 °F 59.0 °F 64% 30.00 in 10.0 mi SSW 4.6 mph - N/A   Scattered Clouds
7:15 PM 69.8 °F 57.2 °F 64% 30.00 in 10.0 mi Calm Calm - N/A   Clear
7:35 PM 69.8 °F 59.0 °F 68% 30.01 in 10.0 mi SSW 3.5 mph - N/A   Clear
7:55 PM 68.0 °F 59.0 °F 73% 30.01 in 10.0 mi West 3.5 mph - N/A   Mostly Cloudy
8:15 PM 66.2 °F 59.0 °F 78% 30.01 in 10.0 mi Calm Calm - N/A   Scattered Clouds
8:35 PM 64.4 °F 60.8 °F 88% 30.01 in 10.0 mi Calm Calm - N/A   Clear
8:55 PM 62.6 °F 62.6 °F 100% 30.01 in 10.0 mi Calm Calm - N/A   Clear
9:15 PM 62.6 °F 62.6 °F 100% 30.02 in 10.0 mi Calm Calm - N/A   Clear
9:35 PM 62.6 °F 62.6 °F 100% 30.03 in 10.0 mi Calm Calm - N/A   Clear
9:55 PM 62.6 °F 62.6 °F 100% 30.03 in 10.0 mi Calm Calm - N/A   Clear
10:15 PM 60.8 °F 60.8 °F 100% 30.03 in 10.0 mi Calm Calm - N/A   Scattered Clouds
10:35 PM 62.6 °F 62.6 °F 100% 30.03 in 10.0 mi East 4.6 mph - N/A   Mostly Cloudy
10:55 PM 60.8 °F 60.8 °F 100% 30.03 in 10.0 mi ESE 3.5 mph - N/A   Scattered Clouds
11:35 PM 60.8 °F 60.8 °F 100% 30.03 in 10.0 mi Calm Calm - N/A   Clear
11:55 PM 59.0 °F 59.0 °F 100% 30.02 in 10.0 mi Calm Calm - N/A   Clear